Weather reports worldwide

Advertisment
Maastricht, Netherlands (6380): temperature & dewpoint: 01.08.2020 03:00:00 - 07.08.2020 03:00:00 (CEST)Maastricht, Netherlands (6380): temperature 5cm: 01.08.2020 03:00:00 - 07.08.2020 03:00:00 (CEST)Maastricht, Netherlands (6380): wind speed & gusts: 01.08.2020 03:00:00 - 07.08.2020 03:00:00 (CEST)Maastricht, Netherlands (6380): wind direction: 01.08.2020 03:00:00 - 07.08.2020 03:00:00 (CEST)Maastricht, Netherlands (6380): reduced air pressure: 01.08.2020 03:00:00 - 07.08.2020 03:00:00 (CEST)Maastricht, Netherlands (6380): visibility: 01.08.2020 03:00:00 - 07.08.2020 03:00:00 (CEST)Maastricht, Netherlands (6380): precipitation: 01.08.2020 03:00:00 - 07.08.2020 03:00:00 (CEST)
Date & Time tt [°C] td [°C] tt 5cm [°C] ff [km/h] ff [kn] fx [km/h] fx [kn] dd ppp [hPa] vv [km] rr [mm]
07.08.2020 03:00:00 20,2 10,7 15,2 9 5 11 6 S 1019,2 10 0,0
07.08.2020 02:00:00 22,4 10,0 17,4 4 2 14 8 - 1019,2 10 0,0
07.08.2020 01:00:00 22,0 9,9 16,3 8 4 14 8 SE 1019,2 10 0,0
07.08.2020 00:00:00 23,3 9,3 14,4 9 5 11 6 E 1019,0 10 0,0
06.08.2020 23:00:00 24,1 9,2 16,4 9 5 11 6 E 1019,0 10 0,0
06.08.2020 22:00:00 24,9 8,9 19,2 9 5 11 6 E 1018,8 10 0,0
06.08.2020 21:00:00 26,9 8,9 25,1 9 5 22 12 ENE 1018,4 10 0,0
06.08.2020 20:00:00 29,7 8,5 29,9 13 7 22 12 NE 1018,1 10 0,0
06.08.2020 19:00:00 31,5 8,7 33,6 8 4 18 10 ENE 1018,0 10 0,0
06.08.2020 18:00:00 31,6 8,8 35,1 8 4 18 10 E 1018,0 10 0,0
06.08.2020 17:00:00 31,7 8,6 35,7 8 4 18 10 ENE 1018,2 10 0,0
06.08.2020 16:00:00 30,7 9,0 34,6 8 4 18 10 - 1018,3 10 0,0
06.08.2020 15:00:00 31,3 9,3 35,7 5 3 18 10 - 1018,5 10 0,0
06.08.2020 14:00:00 30,6 9,9 35,1 13 7 22 12 E 1018,9 10 0,0
06.08.2020 13:00:00 28,9 10,2 34,1 9 5 14 8 SW 1019,2 10 0,0
06.08.2020 12:00:00 27,9 11,0 32,8 5 3 14 8 - 1019,5 10 0,0
06.08.2020 11:00:00 25,8 10,5 29,1 5 3 11 6 SSW 1019,6 10 0,0
06.08.2020 10:00:00 24,3 10,3 26,5 5 3 14 8 SSW 1019,4 10 0,0
06.08.2020 09:00:00 22,3 9,7 23,1 2 1 7 4 - 1019,2 10 0,0
06.08.2020 08:00:00 19,8 9,5 18,7 8 4 11 6 WSW 1018,6 10 0,0
06.08.2020 07:00:00 17,4 9,6 14,3 9 5 11 6 WSW 1018,2 10 0,0
06.08.2020 06:00:00 18,4 8,3 15,3 13 7 14 8 S 1017,6 10 0,0
06.08.2020 05:00:00 18,4 8,2 15,5 13 7 14 8 S 1017,4 10 0,0
06.08.2020 04:00:00 19,1 8,1 16,5 11 6 14 8 S 1017,2 10 0,0
06.08.2020 03:00:00 19,5 8,6 16,6 13 7 18 10 S 1016,9 10 0,0
06.08.2020 02:00:00 18,9 8,8 15,2 11 6 14 8 S 1016,6 10 0,0
06.08.2020 01:00:00 20,1 8,4 15,7 5 3 14 8 S 1016,6 10 0,0
06.08.2020 00:00:00 21,9 7,8 14,4 8 4 14 8 SSE 1016,4 10 0,0
05.08.2020 23:00:00 22,5 7,5 15,9 5 3 25 14 S 1016,2 10 0,0
05.08.2020 22:00:00 23,4 7,3 15,8 4 2 18 10 S 1015,8 10 0,0
05.08.2020 21:00:00 24,7 8,0 21,4 5 3 11 6 S 1015,4 10 0,0
05.08.2020 20:00:00 27,9 6,3 28,1 11 6 18 10 S 1015,1 10 0,0
05.08.2020 19:00:00 29,0 5,9 31,4 9 5 22 12 WSW 1014,9 10 0,0
05.08.2020 18:00:00 29,3 5,6 32,5 13 7 22 12 S 1015,1 10 0,0
05.08.2020 17:00:00 29,2 5,4 33,1 11 6 25 14 SSE 1015,2 10 0,0
05.08.2020 16:00:00 28,6 5,9 33,2 15 8 25 14 SW 1015,5 10 0,0
05.08.2020 15:00:00 28,4 5,8 32,8 16 9 29 16 S 1015,9 10 0,0
05.08.2020 14:00:00 27,5 5,2 32,0 16 9 32 18 SW 1016,1 10 0,0
05.08.2020 13:00:00 26,5 6,4 30,8 18 10 29 16 SSW 1016,6 10 0,0
05.08.2020 12:00:00 25,7 7,1 29,3 15 8 29 16 SW 1016,9 10 0,0
05.08.2020 11:00:00 24,9 7,5 27,1 18 10 25 14 SW 1017,2 10 0,0
05.08.2020 10:00:00 22,2 7,4 23,7 18 10 29 16 SSW 1017,5 10 0,0
05.08.2020 09:00:00 18,8 8,1 19,7 13 7 18 10 S 1017,4 10 0,0
05.08.2020 08:00:00 15,5 8,4 14,6 15 8 14 8 SSW 1017,0 10 0,0
05.08.2020 07:00:00 13,4 8,1 11,9 13 7 18 10 SSW 1016,8 10 0,0
05.08.2020 06:00:00 11,5 7,1 9,9 13 7 14 8 SSW 1016,6 10 0,0
05.08.2020 05:00:00 13,5 7,0 11,5 9 5 14 8 S 1016,3 10 0,0
05.08.2020 04:00:00 13,8 7,0 11,1 9 5 11 6 S 1016,4 10 0,0
05.08.2020 03:00:00 14,4 7,1 12,5 9 5 14 8 S 1016,7 10 0,0
05.08.2020 02:00:00 15,0 7,2 12,6 9 5 14 8 S 1016,6 10 0,0
05.08.2020 01:00:00 17,2 6,6 14,9 13 7 18 10 SSE 1016,7 10 0,0
05.08.2020 00:00:00 17,0 7,1 12,5 9 5 14 8 SSE 1017,0 10 0,0
04.08.2020 23:00:00 16,6 7,7 10,1 8 4 29 16 SE 1016,9 10 0,0
04.08.2020 22:00:00 17,8 7,1 10,2 4 2 4 2 SSE 1017,0 10 0,0
04.08.2020 21:00:00 19,8 6,5 15,4 4 2 11 6 - 1016,8 10 0,0
04.08.2020 20:00:00 21,4 5,9 21,7 8 4 22 12 WSW 1016,8 10 0,0
04.08.2020 19:00:00 22,2 5,8 24,0 8 4 18 10 WSW 1016,8 10 0,0
04.08.2020 18:00:00 23,3 6,3 26,4 15 8 29 16 SW 1016,8 10 0,0
04.08.2020 17:00:00 23,1 5,4 25,0 5 3 18 10 WNW 1017,1 10 0,0
04.08.2020 16:00:00 22,9 5,5 27,6 11 6 18 10 - 1017,3 10 0,0
04.08.2020 15:00:00 20,8 5,7 24,2 11 6 25 14 WNW 1017,7 10 0,0
04.08.2020 14:00:00 22,1 6,3 27,0 5 3 22 12 - 1017,6 10 0,0
04.08.2020 13:00:00 20,7 7,9 24,7 8 4 18 10 - 1017,8 10 0,0
04.08.2020 12:00:00 19,0 8,6 21,4 8 4 18 10 N 1017,8 10 0,0
04.08.2020 11:00:00 18,5 10,0 21,0 8 4 14 8 - 1017,9 10 0,0
04.08.2020 10:00:00 16,8 10,8 18,3 8 4 14 8 NNW 1017,9 10 0,0
04.08.2020 09:00:00 15,8 11,7 17,7 9 5 18 10 NNW 1017,8 10 0,0
04.08.2020 08:00:00 13,4 11,5 13,6 5 3 11 6 WNW 1017,3 10 0,0
04.08.2020 07:00:00 13,3 11,9 12,5 5 3 7 4 WNW 1016,8 10 0,0
04.08.2020 06:00:00 12,9 11,5 12,2 8 4 11 6 NNW 1016,3 10 0,0
04.08.2020 05:00:00 13,0 11,5 12,1 8 4 11 6 NNW 1015,9 10 0,0
04.08.2020 04:00:00 13,1 11,5 12,3 8 4 14 8 NNW 1015,6 10 0,0
04.08.2020 03:00:00 13,7 11,4 12,7 5 3 11 6 WNW 1015,6 10 0,0
04.08.2020 02:00:00 13,9 11,1 13,2 4 2 11 6 - 1015,8 10 0,0
04.08.2020 01:00:00 13,2 10,1 11,6 4 2 14 8 - 1015,8 10 0,0
04.08.2020 00:00:00 14,1 9,8 12,0 5 3 11 6 W 1015,1 10 0,0
03.08.2020 23:00:00 13,8 9,6 10,6 8 4 14 8 NW 1014,6 10 0,0
03.08.2020 22:00:00 15,1 9,6 13,8 11 6 32 18 NNW 1014,0 10 0,0
03.08.2020 21:00:00 16,9 9,0 16,2 16 9 32 18 N 1013,3 10 0,0
03.08.2020 20:00:00 18,5 9,8 18,6 16 9 36 19 N 1013,1 10 0,0
03.08.2020 19:00:00 18,5 10,1 18,5 28 15 43 23 NNW 1012,4 10 0,0
03.08.2020 18:00:00 21,9 6,7 22,8 9 5 22 12 NNW 1012,0 10 0,0
03.08.2020 17:00:00 22,7 6,3 26,6 8 4 18 10 - 1011,9 10 0,0
03.08.2020 16:00:00 22,9 7,2 26,6 5 3 22 12 - 1012,3 10 0,0
03.08.2020 15:00:00 22,6 7,6 26,9 11 6 14 8 NNW 1012,8 10 0,0
03.08.2020 14:00:00 21,4 8,1 26,1 4 2 14 8 - 1013,2 10 0,0
03.08.2020 13:00:00 20,8 9,4 24,3 8 4 14 8 N 1013,5 10 0,0
03.08.2020 12:00:00 19,8 9,9 22,7 4 2 14 8 - 1013,9 10 0,0
03.08.2020 11:00:00 19,1 10,8 22,0 4 2 11 6 - 1014,2 10 0,0
03.08.2020 10:00:00 17,7 12,0 18,7 2 1 18 10 - 1014,4 10 0,0
03.08.2020 09:00:00 16,0 11,1 17,5 2 1 4 2 SW 1014,5 10 0,0
03.08.2020 08:00:00 13,7 11,1 12,6 4 2 7 4 - 1014,5 10 0,0
03.08.2020 07:00:00 11,5 9,6 7,0 4 2 4 2 SSW 1014,6 10 0,0
03.08.2020 06:00:00 11,2 9,4 4,7 2 1 4 2 NNW 1014,7 10 0,0
03.08.2020 05:00:00 11,1 9,4 4,6 2 1 4 2 - 1014,7 10 0,0
03.08.2020 04:00:00 11,6 9,7 5,4 5 3 7 4 WSW 1015,0 10 0,0
03.08.2020 03:00:00 12,6 9,9 5,7 4 2 7 4 NW 1015,3 10 0,0
03.08.2020 02:00:00 13,6 10,1 6,4 0 0 4 2 N 1015,6 10 0,0
03.08.2020 01:00:00 13,7 10,0 7,4 2 1 4 2 - 1015,7 10 0,0
03.08.2020 00:00:00 15,6 10,0 11,5 5 3 14 8 N 1015,8 10 0,0
02.08.2020 23:00:00 16,4 10,4 14,2 8 4 18 10 N 1015,8 10 0,0
02.08.2020 22:00:00 18,0 10,8 17,0 9 5 18 10 N 1015,8 10 0,0
02.08.2020 21:00:00 20,0 11,3 19,5 11 6 18 10 NNW 1015,5 10 0,0
02.08.2020 20:00:00 20,7 12,1 20,9 13 7 22 12 NNW 1015,1 10 0,0
02.08.2020 19:00:00 21,7 12,1 23,4 16 9 25 14 NNW 1015,0 10 0,0
02.08.2020 18:00:00 21,5 13,4 22,6 9 5 18 10 NNW 1014,9 10 0,0
02.08.2020 17:00:00 21,6 12,9 23,8 13 7 22 12 W 1015,0 10 0,0
02.08.2020 16:00:00 21,6 12,2 22,7 13 7 25 14 WNW 1015,2 10 0,0
02.08.2020 15:00:00 22,3 12,6 26,7 9 5 22 12 - 1015,3 10 0,0
02.08.2020 14:00:00 20,9 14,3 23,7 11 6 18 10 SW 1015,8 10 0,0
02.08.2020 13:00:00 18,9 14,4 20,0 11 6 22 12 W 1016,3 10 0,0
02.08.2020 12:00:00 18,3 14,1 19,0 13 7 25 14 W 1016,1 10 0,0
02.08.2020 11:00:00 19,8 14,2 20,4 13 7 29 16 W 1015,7 10 0,0
02.08.2020 10:00:00 18,1 13,6 20,2 15 8 22 12 WSW 1015,6 10 0,0
02.08.2020 09:00:00 17,5 13,0 18,4 15 8 25 14 WSW 1015,3 10 0,0
02.08.2020 08:00:00 16,9 12,4 16,8 11 6 18 10 WSW 1015,0 10 0,0
02.08.2020 07:00:00 16,3 12,6 15,5 9 5 18 10 SW 1015,1 10 0,0
02.08.2020 06:00:00 16,7 13,1 15,7 9 5 11 6 SW 1015,1 10 0,0
02.08.2020 05:00:00 17,6 13,0 16,5 5 3 11 6 WSW 1015,1 10 0,0
02.08.2020 04:00:00 17,9 12,6 15,6 4 2 7 4 WNW 1015,1 10 0,0
02.08.2020 03:00:00 18,2 12,6 15,4 4 2 7 4 - 1015,3 10 0,0
02.08.2020 02:00:00 19,2 12,6 17,9 8 4 11 6 NW 1015,4 10 0,0
02.08.2020 01:00:00 20,2 12,5 19,1 8 4 11 6 NNW 1015,5 10 0,0
02.08.2020 00:00:00 20,8 12,5 19,7 5 3 11 6 NW 1015,6 10 0,0
01.08.2020 23:00:00 21,0 12,8 20,0 9 5 25 14 NNW 1015,6 10 0,0
01.08.2020 22:00:00 22,2 16,0 21,5 13 7 22 12 N 1015,4 10 0,0
01.08.2020 21:00:00 23,1 17,2 22,9 11 6 29 16 N 1014,9 10 0,0
01.08.2020 20:00:00 25,5 17,6 26,6 16 9 29 16 N 1014,1 10 0,0
01.08.2020 19:00:00 27,5 16,3 28,6 11 6 18 10 W 1013,8 10 0,0
01.08.2020 18:00:00 27,4 17,2 29,1 11 6 22 12 WNW 1014,4 10 0,0
01.08.2020 17:00:00 28,6 16,9 30,8 11 6 25 14 WNW 1014,2 10 0,0
01.08.2020 16:00:00 27,8 15,8 30,5 13 7 29 16 W 1014,6 10 0,0
01.08.2020 15:00:00 29,4 16,8 32,9 11 6 25 14 - 1014,3 10 0,0
01.08.2020 14:00:00 28,0 15,8 31,6 13 7 25 14 W 1014,6 10 0,0
01.08.2020 13:00:00 27,4 15,9 31,5 13 7 22 12 WSW 1014,9 10 0,0
01.08.2020 12:00:00 26,7 16,2 29,9 13 7 18 10 W 1014,9 10 0,0
01.08.2020 11:00:00 24,5 15,7 24,7 9 5 14 8 WSW 1014,8 10 0,0
01.08.2020 10:00:00 22,3 15,5 22,4 15 8 22 12 SSW 1015,1 10 0,0
01.08.2020 09:00:00 22,3 15,9 22,2 8 4 14 8 WSW 1014,6 10 0,0
01.08.2020 08:00:00 22,6 15,7 22,5 9 5 18 10 W 1013,2 10 0,0
01.08.2020 07:00:00 22,8 16,5 21,9 13 7 18 10 WSW 1013,0 10 0,0
01.08.2020 06:00:00 23,1 16,6 22,1 13 7 22 12 WSW 1012,9 10 0,0
01.08.2020 05:00:00 24,2 15,7 23,0 11 6 18 10 WSW 1012,5 10 0,0
01.08.2020 04:00:00 24,9 14,4 22,6 18 10 22 12 SW 1012,7 10 0,0
01.08.2020 03:00:00 24,6 12,7 23,3 18 10 22 12 SW 1012,1 10 0,0

tt = temperature
td = dewpoint
tt 5cm = temperature 5cm
ff = wind speed
fx = gusts
dd = wind direction
ppp = reduced air pressure
vv = visibility
rr = precipitation

Next stations